PIA619 KMCO-GOBD

Flight info

Callsign PIA619
Flight time 7h 26m
Altitude 37998
Route MZULO3 LENDS M203 SNAGY/M080F370 DCT 29N060W 29N057W DCT 2950N DCT 2945N/M080F390 DCT 28N042W DCT 2740N DCT 24N034W DCT ULTEM/N0460F390 UR976 LUMPO/N0375F230 R976 LIGOV DCT
Aircraft A330/H-SDE2E3FGHIJ1RWXY/LB1

Departure

Time 2026-04-25 12:24
Airport Orlando International Airport (KMCO)

Arrival

Time 2026-04-25 19:50
Airport Blaise Diagne International Airport (GOBD)
Time Latitude Longitude Altitude Speed Heading
2026-04-25 11:34 28.42912 -81.30056 109 ft 0 kts 182°
2026-04-25 12:07 28.42918 -81.30055 106 ft 3 kts 182°
2026-04-25 12:08 28.42957 -81.30052 106 ft 3 kts 163°
2026-04-25 12:08 28.42978 -81.30065 105 ft 3 kts 89°
2026-04-25 12:08 28.42979 -81.30071 109 ft 0 kts 78°
2026-04-25 12:13 28.42980 -81.30049 109 ft 6 kts 83°
2026-04-25 12:13 28.42972 -81.29990 108 ft 9 kts 110°
2026-04-25 12:13 28.42942 -81.29902 106 ft 14 kts 113°
2026-04-25 12:14 28.42935 -81.29890 107 ft 0 kts 120°
2026-04-25 12:15 28.42934 -81.29888 108 ft 2 kts 120°
2026-04-25 12:15 28.42916 -81.29853 107 ft 8 kts 121°
2026-04-25 12:15 28.42937 -81.29805 109 ft 7 kts 26°
2026-04-25 12:16 28.42998 -81.29810 108 ft 11 kts 356°
2026-04-25 12:16 28.43083 -81.29794 108 ft 14 kts
2026-04-25 12:16 28.43178 -81.29813 109 ft 16 kts 359°
2026-04-25 12:16 28.43302 -81.29815 107 ft 20 kts 360°
2026-04-25 12:17 28.43348 -81.29816 108 ft 0 kts 360°
2026-04-25 12:17 28.43351 -81.29815 108 ft 2 kts
2026-04-25 12:17 28.43381 -81.29808 109 ft 7 kts 10°
2026-04-25 12:17 28.43434 -81.29785 109 ft 9 kts 45°
2026-04-25 12:18 28.43431 -81.29715 111 ft 9 kts 83°
2026-04-25 12:18 28.43434 -81.29707 111 ft 0 kts 77°
2026-04-25 12:21 28.43435 -81.29699 111 ft 3 kts 77°
2026-04-25 12:21 28.43444 -81.29656 111 ft 8 kts 77°
2026-04-25 12:21 28.43429 -81.29590 110 ft 9 kts 124°
2026-04-25 12:22 28.43401 -81.29583 109 ft 0 kts 180°
2026-04-25 12:23 28.43335 -81.29583 111 ft 41 kts 180°
2026-04-25 12:23 28.42748 -81.29576 108 ft 125 kts 179°
2026-04-25 12:24 28.41670 -81.29557 174 ft 181 kts 179°
2026-04-25 12:24 28.40348 -81.29537 548 ft 200 kts 179°
2026-04-25 12:24 28.38902 -81.29516 925 ft 211 kts 179°
2026-04-25 12:24 28.37420 -81.29430 1294 ft 210 kts 169°
2026-04-25 12:25 28.36155 -81.28702 1717 ft 211 kts 142°
2026-04-25 12:25 28.35210 -81.27333 2125 ft 234 kts 114°
2026-04-25 12:25 28.34949 -81.25456 2546 ft 249 kts 85°
2026-04-25 12:25 28.35410 -81.23570 2815 ft 255 kts 67°
2026-04-25 12:26 28.36138 -81.21730 3175 ft 256 kts 64°
2026-04-25 12:26 28.36875 -81.19896 3534 ft 256 kts 66°
2026-04-25 12:26 28.37557 -81.18014 3790 ft 262 kts 68°
2026-04-25 12:26 28.38194 -81.16040 4025 ft 269 kts 70°
2026-04-25 12:27 28.38792 -81.14020 4434 ft 270 kts 71°
2026-04-25 12:27 28.39368 -81.11986 4835 ft 271 kts 72°
2026-04-25 12:27 28.39940 -81.09939 5232 ft 273 kts 72°
2026-04-25 12:27 28.40517 -81.07881 5636 ft 274 kts 72°
2026-04-25 12:28 28.41099 -81.05815 6042 ft 275 kts 72°
2026-04-25 12:28 28.41687 -81.03739 6453 ft 277 kts 72°
2026-04-25 12:28 28.42273 -81.01678 6811 ft 279 kts 72°
2026-04-25 12:28 28.42875 -80.99567 7176 ft 282 kts 71°
2026-04-25 12:29 28.43482 -80.97441 7549 ft 284 kts 71°
2026-04-25 12:29 28.44095 -80.95300 7948 ft 286 kts 71°
2026-04-25 12:29 28.44713 -80.93139 8330 ft 289 kts 71°
2026-04-25 12:29 28.45331 -80.90981 8712 ft 291 kts 71°
2026-04-25 12:30 28.45959 -80.88788 9111 ft 293 kts 71°
2026-04-25 12:30 28.46591 -80.86573 9507 ft 296 kts 71°
2026-04-25 12:30 28.47228 -80.84343 9909 ft 298 kts 71°
2026-04-25 12:30 28.47805 -80.82062 10158 ft 306 kts 78°
2026-04-25 12:31 28.48092 -80.79650 10267 ft 318 kts 83°
2026-04-25 12:31 28.48316 -80.77103 10364 ft 329 kts 84°
2026-04-25 12:31 28.48556 -80.74469 10464 ft 340 kts 83°
2026-04-25 12:31 28.48825 -80.71763 10580 ft 348 kts 82°
2026-04-25 12:32 28.49119 -80.69021 10862 ft 351 kts 82°
2026-04-25 12:32 28.49425 -80.66271 11113 ft 352 kts 82°
2026-04-25 12:32 28.49738 -80.63504 11422 ft 354 kts 82°
2026-04-25 12:32 28.50054 -80.60719 11724 ft 355 kts 82°
2026-04-25 12:33 28.50370 -80.57924 12013 ft 358 kts 82°
2026-04-25 12:33 28.50686 -80.55116 12325 ft 359 kts 82°
2026-04-25 12:33 28.51001 -80.52291 12617 ft 361 kts 82°
2026-04-25 12:33 28.51316 -80.49454 12918 ft 363 kts 82°
2026-04-25 12:34 28.51525 -80.47569 13120 ft 364 kts 82°
2026-04-25 12:34 28.51942 -80.43777 13514 ft 366 kts 82°
2026-04-25 12:34 28.52258 -80.40896 13789 ft 368 kts 82°
2026-04-25 12:34 28.52365 -80.39917 13872 ft 369 kts 82°
2026-04-25 12:35 28.52892 -80.35088 14302 ft 372 kts 82°
2026-04-25 12:35 28.53209 -80.32160 14544 ft 374 kts 82°
2026-04-25 12:35 28.53466 -80.30225 14704 ft 374 kts 77°
2026-04-25 12:35 28.54461 -80.26431 15048 ft 374 kts 65°
2026-04-25 12:36 28.55511 -80.23721 15274 ft 376 kts 63°
2026-04-25 12:36 28.56227 -80.21924 15456 ft 377 kts 63°
2026-04-25 12:36 28.57308 -80.19199 15694 ft 379 kts 63°
2026-04-25 12:36 28.58726 -80.15557 16017 ft 381 kts 64°
2026-04-25 12:37 28.59776 -80.12813 16259 ft 383 kts 64°
2026-04-25 12:37 28.60504 -80.10894 16425 ft 384 kts 64°
2026-04-25 12:37 28.61561 -80.08096 16663 ft 386 kts 64°
2026-04-25 12:37 28.62620 -80.05280 16910 ft 388 kts 64°
2026-04-25 12:38 28.63684 -80.02451 17146 ft 390 kts 64°
2026-04-25 12:38 28.64749 -79.99614 17376 ft 392 kts 64°
2026-04-25 12:38 28.65808 -79.96795 17608 ft 393 kts 64°
2026-04-25 12:38 28.66886 -79.93926 17842 ft 395 kts 64°
2026-04-25 12:39 28.67953 -79.91084 18064 ft 397 kts 64°
2026-04-25 12:39 28.69031 -79.88213 18315 ft 399 kts 64°
2026-04-25 12:39 28.70133 -79.85278 18540 ft 399 kts 64°
2026-04-25 12:39 28.71225 -79.82370 18774 ft 400 kts 64°
2026-04-25 12:40 28.72321 -79.79450 19014 ft 401 kts 64°
2026-04-25 12:40 28.73421 -79.76517 19228 ft 402 kts 64°
2026-04-25 12:40 28.74507 -79.73622 19450 ft 403 kts 64°
2026-04-25 12:40 28.75608 -79.70686 19690 ft 404 kts 64°
2026-04-25 12:41 28.76714 -79.67733 19915 ft 405 kts 64°
2026-04-25 12:41 28.77822 -79.64774 20148 ft 406 kts 64°
2026-04-25 12:41 28.78932 -79.61806 20379 ft 407 kts 64°
2026-04-25 12:41 28.80044 -79.58829 20611 ft 409 kts 64°
2026-04-25 12:42 28.81258 -79.55908 20816 ft 408 kts 58°
2026-04-25 12:42 28.82240 -79.54079 20974 ft 407 kts 52°
2026-04-25 12:42 28.84452 -79.50584 21258 ft 407 kts 50°
2026-04-25 12:42 28.86118 -79.48008 21478 ft 409 kts 51°
2026-04-25 12:43 28.87801 -79.45390 21702 ft 410 kts 51°
2026-04-25 12:43 28.89477 -79.42760 21895 ft 411 kts 51°
2026-04-25 12:43 28.92828 -79.37442 22380 ft 414 kts 51°
2026-04-25 12:44 28.94510 -79.34760 22584 ft 415 kts 52°
2026-04-25 12:44 28.96189 -79.32076 22808 ft 417 kts 52°
2026-04-25 12:44 28.99567 -79.26675 23250 ft 419 kts 52°
2026-04-25 12:45 29.01264 -79.23961 23493 ft 420 kts 52°
2026-04-25 12:45 29.02967 -79.21236 23681 ft 422 kts 52°
2026-04-25 12:45 29.06349 -79.15819 24087 ft 423 kts 52°
2026-04-25 12:46 29.08059 -79.13078 24270 ft 424 kts 52°
2026-04-25 12:46 29.09773 -79.10329 24478 ft 425 kts 52°
2026-04-25 12:46 29.11490 -79.07572 24656 ft 426 kts 52°
2026-04-25 12:46 29.13207 -79.04814 24852 ft 427 kts 52°
2026-04-25 12:47 29.14930 -79.02044 25041 ft 427 kts 52°
2026-04-25 12:47 29.16653 -78.99270 25230 ft 428 kts 52°
2026-04-25 12:47 29.18381 -78.96488 25413 ft 429 kts 52°
2026-04-25 12:47 29.20110 -78.93703 25592 ft 430 kts 53°
2026-04-25 12:48 29.21816 -78.90948 25774 ft 431 kts 53°
2026-04-25 12:48 29.23551 -78.88144 25949 ft 432 kts 52°
2026-04-25 12:48 29.25288 -78.85336 26121 ft 433 kts 52°
2026-04-25 12:48 29.27029 -78.82524 26289 ft 434 kts 52°
2026-04-25 12:49 29.28775 -78.79704 26461 ft 434 kts 52°
2026-04-25 12:49 29.30525 -78.76876 26622 ft 435 kts 52°
2026-04-25 12:49 29.32275 -78.74046 26775 ft 436 kts 52°
2026-04-25 12:49 29.33959 -78.71321 26934 ft 437 kts 52°
2026-04-25 12:50 29.35590 -78.68317 27074 ft 440 kts 60°
2026-04-25 12:50 29.36774 -78.65127 27236 ft 444 kts 70°
2026-04-25 12:50 29.37480 -78.61671 27381 ft 447 kts 80°
2026-04-25 12:50 29.37911 -78.58141 27511 ft 448 kts 80°
2026-04-25 12:51 29.38351 -78.54604 27649 ft 449 kts 79°
2026-04-25 12:51 29.38831 -78.51065 27769 ft 450 kts 79°
2026-04-25 12:51 29.39343 -78.47529 28001 ft 448 kts 78°
2026-04-25 12:51 29.39866 -78.44023 28292 ft 445 kts 78°
2026-04-25 12:52 29.40391 -78.40538 28582 ft 442 kts 78°
2026-04-25 12:52 29.40913 -78.37070 28874 ft 442 kts 78°
2026-04-25 12:52 29.41431 -78.33627 29171 ft 446 kts 78°
2026-04-25 12:52 29.41957 -78.30101 29472 ft 450 kts 78°
2026-04-25 12:53 29.42484 -78.26549 29780 ft 454 kts 78°
2026-04-25 12:53 29.43014 -78.22961 30082 ft 458 kts 78°
2026-04-25 12:53 29.43546 -78.19340 30333 ft 462 kts 78°
2026-04-25 12:53 29.44081 -78.15688 30605 ft 466 kts 78°
2026-04-25 12:54 29.44620 -78.12007 30879 ft 470 kts 78°
2026-04-25 12:54 29.45161 -78.08299 31142 ft 472 kts 78°
2026-04-25 12:54 29.45703 -78.04582 31411 ft 473 kts 79°
2026-04-25 12:54 29.46237 -78.00904 31674 ft 475 kts 79°
2026-04-25 12:55 29.46780 -77.97158 31953 ft 477 kts 79°
2026-04-25 12:55 29.47148 -77.94617 32142 ft 478 kts 79°
2026-04-25 12:55 29.47869 -77.89629 32513 ft 480 kts 79°
2026-04-25 12:55 29.48414 -77.85847 32797 ft 481 kts 79°
2026-04-25 12:56 29.48960 -77.82043 32947 ft 483 kts 79°
2026-04-25 12:56 29.49505 -77.78241 33000 ft 484 kts 79°
2026-04-25 12:56 29.50589 -77.70648 33000 ft 483 kts 79°
2026-04-25 12:57 29.51587 -77.63000 32998 ft 483 kts 81°
2026-04-25 12:57 29.52494 -77.55345 33001 ft 483 kts 81°
2026-04-25 12:58 29.53405 -77.47699 33001 ft 483 kts 81°
2026-04-25 12:58 29.54323 -77.40044 32998 ft 484 kts 81°
2026-04-25 12:59 29.55240 -77.32405 32999 ft 483 kts 81°
2026-04-25 12:59 29.56136 -77.24912 33000 ft 483 kts 81°
2026-04-25 13:00 29.56897 -77.18505 33003 ft 483 kts 82°
2026-04-25 13:00 29.57948 -77.09614 33001 ft 484 kts 82°
2026-04-25 13:01 29.58848 -77.01956 33009 ft 484 kts 82°
2026-04-25 13:01 29.59735 -76.94381 33004 ft 484 kts 82°
2026-04-25 13:02 29.60605 -76.86769 33002 ft 484 kts 83°
2026-04-25 13:02 29.60937 -76.79037 33014 ft 484 kts 88°
2026-04-25 13:03 29.61121 -76.71306 33016 ft 484 kts 88°
2026-04-25 13:03 29.61308 -76.63576 33012 ft 484 kts 88°
2026-04-25 13:04 29.61502 -76.55841 33011 ft 484 kts 88°
2026-04-25 13:04 29.61696 -76.48159 33013 ft 484 kts 88°
2026-04-25 13:05 29.61888 -76.40426 33012 ft 484 kts 88°
2026-04-25 13:05 29.62075 -76.32693 33011 ft 484 kts 88°
2026-04-25 13:06 29.62258 -76.24953 33017 ft 484 kts 88°
2026-04-25 13:06 29.62437 -76.17211 33018 ft 484 kts 88°
2026-04-25 13:07 29.62611 -76.09476 33016 ft 484 kts 88°
2026-04-25 13:07 29.62779 -76.01789 33022 ft 484 kts 88°
2026-04-25 13:08 29.62944 -75.94057 33022 ft 484 kts 88°
2026-04-25 13:08 29.63101 -75.86316 33024 ft 484 kts 89°
2026-04-25 13:09 29.63253 -75.78583 33026 ft 484 kts 89°
2026-04-25 13:09 29.63399 -75.70902 33024 ft 484 kts 89°
2026-04-25 13:10 29.63542 -75.63168 33027 ft 484 kts 89°
2026-04-25 13:10 29.63563 -75.61976 33027 ft 484 kts 89°
2026-04-25 13:11 29.63594 -75.60252 33024 ft 484 kts 89°
2026-04-25 13:11 29.63674 -75.55775 33029 ft 484 kts 89°
2026-04-25 13:12 29.63807 -75.48092 33022 ft 484 kts 89°
2026-04-25 13:12 29.63916 -75.41618 33025 ft 484 kts 89°
2026-04-25 13:13 29.64061 -75.32631 33030 ft 484 kts 89°
2026-04-25 13:13 29.64182 -75.24899 33026 ft 484 kts 89°
2026-04-25 13:14 29.64297 -75.17169 33024 ft 484 kts 89°
2026-04-25 13:14 29.64408 -75.09491 33029 ft 484 kts 89°
2026-04-25 13:15 29.64515 -75.01766 33025 ft 484 kts 89°
2026-04-25 13:15 29.64617 -74.94040 33026 ft 483 kts 89°
2026-04-25 13:16 29.64718 -74.86311 33026 ft 484 kts 89°
2026-04-25 13:16 29.64814 -74.78579 33026 ft 483 kts 89°
2026-04-25 13:17 29.64897 -74.71051 33031 ft 483 kts 89°
2026-04-25 13:17 29.64979 -74.63322 33026 ft 483 kts 89°
2026-04-25 13:18 29.65059 -74.55601 33028 ft 484 kts 89°
2026-04-25 13:18 29.65135 -74.47867 33031 ft 484 kts 89°
2026-04-25 13:19 29.65207 -74.40146 33023 ft 484 kts 89°
2026-04-25 13:19 29.65262 -74.33720 33028 ft 483 kts 89°
2026-04-25 13:20 29.65335 -74.24680 33029 ft 484 kts 89°
2026-04-25 13:20 29.65393 -74.17009 33032 ft 483 kts 89°
2026-04-25 13:21 29.65446 -74.09271 33030 ft 484 kts 89°
2026-04-25 13:21 29.65494 -74.01562 33036 ft 484 kts 89°
2026-04-25 13:22 29.65539 -73.93834 33039 ft 484 kts 89°
2026-04-25 13:23 29.65596 -73.82227 33035 ft 484 kts 89°
2026-04-25 13:23 29.65630 -73.74548 33038 ft 484 kts 89°
2026-04-25 13:24 29.65659 -73.66993 33040 ft 484 kts 90°
2026-04-25 13:24 29.65684 -73.59255 33040 ft 484 kts 90°
2026-04-25 13:25 29.65704 -73.51521 33035 ft 484 kts 90°
2026-04-25 13:25 29.65719 -73.43784 33034 ft 484 kts 90°
2026-04-25 13:26 29.65730 -73.36103 33039 ft 484 kts 90°
2026-04-25 13:26 29.65737 -73.28362 33035 ft 484 kts 90°
2026-04-25 13:27 29.65739 -73.20633 33038 ft 484 kts 90°
2026-04-25 13:27 29.65736 -73.12897 33037 ft 484 kts 90°
2026-04-25 13:28 29.65729 -73.05180 33046 ft 484 kts 90°
2026-04-25 13:28 29.65717 -72.97452 33039 ft 483 kts 90°
2026-04-25 13:29 29.65701 -72.89713 33042 ft 483 kts 90°
2026-04-25 13:29 29.65677 -72.82044 33041 ft 483 kts 90°
2026-04-25 13:30 29.65639 -72.70516 33047 ft 484 kts 90°
2026-04-25 13:31 29.65590 -72.58928 33044 ft 483 kts 90°
2026-04-25 13:31 29.65554 -72.51209 33045 ft 483 kts 90°
2026-04-25 13:32 29.65513 -72.43488 33049 ft 483 kts 90°
2026-04-25 13:32 29.65466 -72.35825 33044 ft 483 kts 90°
2026-04-25 13:33 29.65413 -72.28109 33045 ft 482 kts 90°
2026-04-25 13:33 29.65357 -72.20402 33042 ft 482 kts 90°
2026-04-25 13:34 29.65296 -72.12683 33044 ft 483 kts 90°
2026-04-25 13:34 29.65230 -72.04964 33044 ft 483 kts 90°
2026-04-25 13:35 29.65161 -71.97292 33043 ft 483 kts 90°
2026-04-25 13:35 29.65086 -71.89578 33044 ft 483 kts 90°
2026-04-25 13:36 29.65008 -71.81917 33045 ft 482 kts 90°
2026-04-25 13:36 29.64925 -71.74212 33046 ft 482 kts 90°
2026-04-25 13:37 29.64838 -71.66499 33048 ft 482 kts 90°
2026-04-25 13:37 29.64746 -71.58798 33045 ft 482 kts 90°
2026-04-25 13:38 29.64649 -71.51084 33046 ft 482 kts 90°
2026-04-25 13:38 29.64550 -71.43438 33048 ft 482 kts 90°
2026-04-25 13:39 29.64445 -71.35725 33049 ft 482 kts 90°
2026-04-25 13:39 29.64335 -71.28027 33046 ft 482 kts 91°
2026-04-25 13:40 29.64241 -71.21617 33049 ft 482 kts 91°
2026-04-25 13:40 29.64102 -71.12602 33049 ft 482 kts 91°
2026-04-25 13:41 29.63979 -71.04893 33049 ft 483 kts 91°
2026-04-25 13:41 29.63855 -70.97340 33048 ft 483 kts 91°
2026-04-25 13:42 29.63724 -70.89678 33051 ft 483 kts 91°
2026-04-25 13:42 29.63587 -70.81957 33050 ft 483 kts 91°
2026-04-25 13:43 29.63448 -70.74367 33050 ft 483 kts 91°
2026-04-25 13:43 29.63303 -70.66638 33050 ft 484 kts 91°
2026-04-25 13:44 29.63153 -70.58908 33048 ft 484 kts 91°
2026-04-25 13:44 29.62998 -70.51174 33052 ft 484 kts 91°
2026-04-25 13:45 29.62866 -70.44747 33054 ft 484 kts 91°
2026-04-25 13:45 29.62676 -70.35766 33053 ft 484 kts 91°
2026-04-25 13:46 29.62508 -70.28026 33051 ft 484 kts 91°
2026-04-25 13:46 29.62335 -70.20286 33054 ft 484 kts 91°
2026-04-25 13:47 29.62158 -70.12544 33059 ft 484 kts 91°
2026-04-25 13:47 29.61976 -70.04802 33054 ft 485 kts 91°
2026-04-25 13:48 29.61811 -69.97927 33052 ft 485 kts 91°
2026-04-25 13:48 29.61621 -69.90179 33053 ft 485 kts 91°
2026-04-25 13:49 29.61426 -69.82425 33059 ft 486 kts 91°
2026-04-25 13:49 29.61253 -69.75699 33057 ft 486 kts 91°
2026-04-25 13:50 29.61055 -69.68144 33053 ft 486 kts 91°
2026-04-25 13:50 29.60847 -69.60378 33057 ft 487 kts 91°
2026-04-25 13:51 29.60636 -69.52650 33055 ft 488 kts 91°
2026-04-25 13:51 29.60419 -69.44860 33058 ft 488 kts 91°
2026-04-25 13:52 29.60196 -69.37053 33059 ft 489 kts 91°
2026-04-25 13:52 29.59969 -69.29227 33063 ft 490 kts 92°
2026-04-25 13:53 29.59736 -69.21385 33061 ft 492 kts 92°
2026-04-25 13:53 29.59501 -69.13571 33062 ft 493 kts 92°
2026-04-25 13:54 29.59257 -69.05686 33060 ft 494 kts 92°
2026-04-25 13:54 29.59047 -68.98987 33058 ft 495 kts 92°
2026-04-25 13:55 29.58795 -68.91074 33058 ft 496 kts 92°
2026-04-25 13:55 29.58537 -68.83152 33060 ft 497 kts 92°
2026-04-25 13:56 29.58274 -68.75203 33063 ft 498 kts 92°
2026-04-25 13:56 29.58047 -68.68456 33058 ft 499 kts 92°
2026-04-25 13:57 29.57774 -68.60474 33062 ft 500 kts 92°
2026-04-25 13:57 29.57497 -68.52536 33060 ft 501 kts 92°
2026-04-25 13:58 29.57213 -68.44524 33056 ft 502 kts 93°
2026-04-25 13:58 29.56924 -68.36504 33057 ft 503 kts 93°
2026-04-25 13:59 29.56629 -68.28461 33056 ft 504 kts 93°
2026-04-25 13:59 29.56329 -68.20400 33063 ft 506 kts 93°
2026-04-25 14:00 29.56075 -68.13684 33060 ft 507 kts 93°
2026-04-25 14:00 29.55714 -68.04285 33059 ft 508 kts 93°
2026-04-25 14:01 29.55400 -67.96236 33059 ft 509 kts 94°
2026-04-25 14:01 29.55078 -67.88109 33060 ft 510 kts 94°
2026-04-25 14:02 29.54751 -67.79967 33058 ft 511 kts 94°
2026-04-25 14:02 29.54431 -67.72134 33062 ft 512 kts 94°
2026-04-25 14:03 29.54092 -67.63954 33064 ft 513 kts 94°
2026-04-25 14:03 29.53749 -67.55808 33061 ft 514 kts 94°
2026-04-25 14:04 29.53399 -67.47604 33056 ft 515 kts 94°
2026-04-25 14:04 29.53043 -67.39380 33061 ft 516 kts 94°
2026-04-25 14:05 29.52742 -67.32539 33059 ft 516 kts 94°
2026-04-25 14:05 29.52376 -67.24295 33058 ft 517 kts 95°
2026-04-25 14:06 29.51943 -67.14709 33058 ft 518 kts 95°
2026-04-25 14:06 29.51565 -67.06447 33058 ft 519 kts 95°
2026-04-25 14:07 29.51243 -66.99569 33054 ft 519 kts 95°
2026-04-25 14:07 29.50848 -66.91297 33057 ft 519 kts 95°
2026-04-25 14:08 29.50447 -66.83021 33059 ft 519 kts 95°
2026-04-25 14:08 29.50060 -66.75128 33054 ft 520 kts 96°
2026-04-25 14:09 29.49652 -66.66903 33055 ft 519 kts 96°
2026-04-25 14:09 29.49237 -66.58629 33054 ft 520 kts 96°
2026-04-25 14:10 29.48816 -66.50343 33057 ft 520 kts 96°
2026-04-25 14:10 29.48391 -66.42059 33055 ft 520 kts 96°
2026-04-25 14:11 29.47963 -66.33777 33055 ft 520 kts 96°
2026-04-25 14:11 29.47532 -66.25547 33056 ft 520 kts 96°
2026-04-25 14:12 29.47093 -66.17259 33057 ft 520 kts 96°
2026-04-25 14:12 29.46649 -66.08965 33054 ft 521 kts 96°
2026-04-25 14:13 29.46201 -66.00682 33054 ft 521 kts 96°
2026-04-25 14:13 29.45747 -65.92385 33052 ft 521 kts 96°
2026-04-25 14:14 29.45287 -65.84078 33050 ft 522 kts 96°
2026-04-25 14:14 29.44827 -65.75850 33059 ft 522 kts 97°
2026-04-25 14:15 29.44359 -65.67588 33054 ft 523 kts 97°
2026-04-25 14:15 29.43884 -65.59264 33053 ft 524 kts 97°
2026-04-25 14:16 29.43403 -65.50925 33054 ft 524 kts 97°
2026-04-25 14:16 29.42916 -65.42574 33056 ft 525 kts 97°
2026-04-25 14:17 29.42423 -65.34209 33056 ft 526 kts 97°
2026-04-25 14:17 29.41924 -65.25834 33060 ft 526 kts 97°
2026-04-25 14:18 29.41419 -65.17447 33054 ft 527 kts 97°
2026-04-25 14:18 29.40908 -65.09051 33057 ft 528 kts 97°
2026-04-25 14:19 29.40393 -65.00658 33054 ft 528 kts 97°
2026-04-25 14:19 29.39900 -64.92718 33055 ft 529 kts 98°
2026-04-25 14:20 29.39373 -64.84297 33053 ft 530 kts 98°
2026-04-25 14:20 29.38843 -64.75917 33055 ft 531 kts 98°
2026-04-25 14:21 29.38304 -64.67473 33054 ft 532 kts 98°
2026-04-25 14:21 29.37758 -64.59004 33053 ft 533 kts 98°
2026-04-25 14:22 29.37206 -64.50516 33054 ft 535 kts 98°
2026-04-25 14:22 29.36650 -64.42061 33056 ft 536 kts 99°
2026-04-25 14:23 29.36084 -64.33530 33057 ft 538 kts 99°
2026-04-25 14:23 29.35510 -64.24967 33056 ft 539 kts 99°
2026-04-25 14:24 29.34930 -64.16398 33053 ft 540 kts 99°
2026-04-25 14:24 29.34343 -64.07794 33055 ft 542 kts 99°
2026-04-25 14:25 29.33750 -63.99193 33055 ft 543 kts 100°
2026-04-25 14:25 29.33309 -63.92871 33057 ft 544 kts 100°
2026-04-25 14:26 29.32700 -63.84228 33053 ft 545 kts 100°
2026-04-25 14:26 29.32363 -63.79480 33052 ft 545 kts 100°
2026-04-25 14:27 29.31801 -63.71597 33056 ft 546 kts 100°
2026-04-25 14:27 29.31184 -63.63033 33053 ft 547 kts 101°
2026-04-25 14:28 29.30553 -63.54346 33056 ft 548 kts 101°
2026-04-25 14:28 29.29916 -63.45650 33051 ft 549 kts 101°
2026-04-25 14:29 29.29276 -63.36979 33056 ft 550 kts 101°
2026-04-25 14:29 29.28624 -63.28232 33055 ft 551 kts 101°
2026-04-25 14:30 29.27966 -63.19473 33052 ft 552 kts 101°
2026-04-25 14:30 29.26967 -63.06324 33051 ft 553 kts 102°
2026-04-25 14:31 29.26295 -62.97585 33053 ft 554 kts 102°
2026-04-25 14:31 29.25610 -62.88734 33053 ft 555 kts 102°
2026-04-25 14:32 29.24932 -62.80071 33050 ft 555 kts 102°
2026-04-25 14:32 29.24238 -62.71276 33049 ft 555 kts 102°
2026-04-25 14:33 29.23538 -62.62478 33053 ft 555 kts 102°
2026-04-25 14:33 29.22833 -62.53683 33055 ft 555 kts 102°
2026-04-25 14:34 29.22125 -62.44933 33049 ft 555 kts 102°
2026-04-25 14:34 29.21408 -62.36137 33049 ft 555 kts 102°
2026-04-25 14:35 29.20686 -62.27342 33046 ft 555 kts 102°
2026-04-25 14:35 29.19957 -62.18527 33057 ft 555 kts 102°
2026-04-25 14:36 29.19229 -62.09798 33049 ft 555 kts 102°
2026-04-25 14:36 29.18490 -62.01006 33046 ft 555 kts 102°
2026-04-25 14:37 29.17751 -61.92283 33053 ft 555 kts 102°
2026-04-25 14:37 29.17001 -61.83508 33057 ft 554 kts 101°
2026-04-25 14:38 29.16306 -61.75437 33047 ft 553 kts 101°
2026-04-25 14:38 29.15546 -61.66680 33053 ft 552 kts 101°
2026-04-25 14:39 29.14787 -61.58002 33050 ft 552 kts 101°
2026-04-25 14:39 29.14019 -61.49271 33054 ft 552 kts 101°
2026-04-25 14:40 29.13243 -61.40518 33058 ft 553 kts 101°
2026-04-25 14:40 29.12526 -61.32496 33048 ft 553 kts 101°
2026-04-25 14:41 29.11739 -61.23748 33040 ft 553 kts 101°
2026-04-25 14:41 29.10945 -61.14982 33058 ft 554 kts 101°
2026-04-25 14:42 29.10281 -61.07698 33055 ft 555 kts 101°
2026-04-25 14:42 29.09343 -60.97483 33042 ft 556 kts 101°
2026-04-25 14:43 29.08538 -60.88781 33054 ft 557 kts 101°
2026-04-25 14:43 29.07721 -60.80002 33047 ft 558 kts 101°
2026-04-25 14:44 29.06895 -60.71168 33049 ft 559 kts 101°
2026-04-25 14:44 29.06071 -60.62395 33047 ft 560 kts 101°
2026-04-25 14:45 29.05234 -60.53536 33048 ft 561 kts 102°
2026-04-25 14:45 29.04392 -60.44678 33046 ft 561 kts 102°
2026-04-25 14:46 29.03543 -60.35812 33047 ft 562 kts 102°
2026-04-25 14:46 29.02686 -60.26929 33045 ft 563 kts 102°
2026-04-25 14:47 29.01970 -60.19549 33044 ft 563 kts 102°
2026-04-25 14:47 29.00960 -60.09219 33046 ft 563 kts 102°
2026-04-25 14:48 29.00084 -60.00333 33047 ft 563 kts 102°
2026-04-25 14:48 28.99745 -59.91371 33045 ft 568 kts 92°
2026-04-25 14:49 29.00032 -59.82521 33045 ft 569 kts 91°
2026-04-25 14:49 29.00250 -59.73553 33042 ft 568 kts 93°
2026-04-25 14:50 29.00361 -59.64526 33042 ft 568 kts 94°
2026-04-25 14:50 29.00434 -59.55503 33042 ft 568 kts 94°
2026-04-25 14:51 29.00498 -59.46470 33042 ft 568 kts 94°
2026-04-25 14:51 29.00559 -59.37435 33042 ft 569 kts 94°
2026-04-25 14:52 29.00615 -59.28467 33041 ft 568 kts 94°
2026-04-25 14:52 29.00657 -59.20905 33041 ft 568 kts 94°
2026-04-25 14:53 29.00708 -59.10426 33041 ft 567 kts 94°
2026-04-25 14:53 29.00746 -59.01408 33040 ft 567 kts 94°
2026-04-25 14:54 29.00777 -58.92392 33043 ft 567 kts 94°
2026-04-25 14:54 29.00802 -58.83374 33040 ft 567 kts 94°
2026-04-25 14:55 29.00820 -58.75130 33035 ft 567 kts 94°
2026-04-25 14:55 29.00831 -58.66171 33036 ft 567 kts 94°
2026-04-25 14:56 29.00837 -58.57168 33034 ft 567 kts 94°
2026-04-25 14:56 29.00838 -58.48162 33039 ft 567 kts 94°
2026-04-25 14:57 29.00833 -58.39165 33039 ft 567 kts 94°
2026-04-25 14:57 29.00822 -58.30159 33038 ft 567 kts 94°
2026-04-25 14:58 29.00805 -58.21212 33037 ft 567 kts 94°
2026-04-25 14:58 29.00783 -58.12320 33036 ft 567 kts 94°
2026-04-25 14:59 29.00754 -58.03318 33036 ft 567 kts 94°
2026-04-25 14:59 29.00720 -57.94321 33036 ft 566 kts 94°
2026-04-25 15:00 29.00680 -57.85323 33035 ft 566 kts 94°
2026-04-25 15:00 29.00643 -57.77846 33032 ft 566 kts 94°
2026-04-25 15:01 29.00591 -57.68857 33034 ft 566 kts 94°
2026-04-25 15:01 29.00533 -57.59857 33033 ft 566 kts 94°
2026-04-25 15:02 29.00473 -57.50929 33026 ft 566 kts 94°
2026-04-25 15:02 29.00403 -57.41926 33032 ft 567 kts 94°
2026-04-25 15:03 29.00327 -57.32926 33035 ft 567 kts 94°
2026-04-25 15:03 29.00247 -57.23934 33322 ft 566 kts 94°
2026-04-25 15:04 29.00205 -57.19439 33586 ft 567 kts 94°
2026-04-25 15:04 29.00161 -57.14935 33860 ft 567 kts 94°
2026-04-25 15:04 29.00116 -57.10432 34108 ft 567 kts 94°
2026-04-25 15:04 29.00070 -57.05925 34337 ft 567 kts 94°
2026-04-25 15:05 29.00025 -57.01418 34569 ft 568 kts 94°
2026-04-25 15:05 28.99997 -56.96969 34796 ft 568 kts 93°
2026-04-25 15:05 29.00067 -56.92453 34960 ft 570 kts 91°
2026-04-25 15:06 29.00287 -56.84753 35026 ft 573 kts 91°
2026-04-25 15:06 29.00530 -56.76651 35029 ft 573 kts 91°
2026-04-25 15:07 29.00772 -56.67561 35033 ft 573 kts 91°
2026-04-25 15:07 29.00994 -56.58501 35027 ft 573 kts 91°
2026-04-25 15:08 29.01204 -56.49399 35017 ft 573 kts 91°
2026-04-25 15:08 29.01404 -56.40354 35016 ft 573 kts 91°
2026-04-25 15:09 29.01598 -56.31250 35023 ft 574 kts 91°
2026-04-25 15:09 29.01879 -56.17579 35019 ft 574 kts 92°
2026-04-25 15:10 29.02059 -56.08466 35020 ft 574 kts 92°
2026-04-25 15:11 29.02317 -55.94796 35021 ft 574 kts 92°
2026-04-25 15:11 29.02480 -55.85700 35022 ft 574 kts 92°
2026-04-25 15:12 29.02712 -55.72111 35022 ft 574 kts 92°
2026-04-25 15:12 29.02811 -55.66017 35019 ft 574 kts 92°
2026-04-25 15:13 29.03068 -55.49334 35019 ft 574 kts 92°
2026-04-25 15:14 29.03200 -55.40213 35018 ft 574 kts 92°
2026-04-25 15:14 29.03325 -55.31105 35016 ft 573 kts 92°
2026-04-25 15:15 29.03444 -55.22047 35021 ft 573 kts 92°
2026-04-25 15:15 29.03558 -55.12949 35016 ft 573 kts 92°
2026-04-25 15:16 29.03665 -55.03840 35017 ft 573 kts 92°
2026-04-25 15:16 29.03814 -54.90191 35016 ft 573 kts 92°
2026-04-25 15:17 29.03951 -54.76575 35015 ft 572 kts 92°
2026-04-25 15:18 29.04032 -54.67543 35017 ft 572 kts 92°
2026-04-25 15:18 29.04144 -54.53920 35016 ft 571 kts 92°
2026-04-25 15:19 29.04190 -54.47846 35017 ft 571 kts 92°
2026-04-25 15:19 29.04272 -54.35821 35018 ft 571 kts 92°
2026-04-25 15:20 29.04328 -54.26743 35017 ft 571 kts 92°
2026-04-25 15:20 29.04377 -54.17673 35017 ft 571 kts 92°
2026-04-25 15:21 29.04420 -54.08594 35016 ft 571 kts 92°
2026-04-25 15:21 29.04457 -53.99526 35017 ft 571 kts 92°
2026-04-25 15:22 29.04488 -53.90453 35016 ft 571 kts 92°
2026-04-25 15:22 29.04512 -53.81437 35017 ft 571 kts 92°
2026-04-25 15:23 29.04530 -53.72367 35017 ft 571 kts 92°
2026-04-25 15:23 29.04541 -53.63288 35014 ft 571 kts 93°
2026-04-25 15:24 29.04546 -53.54208 35016 ft 572 kts 93°
2026-04-25 15:24 29.04546 -53.48130 35018 ft 572 kts 93°
2026-04-25 15:25 29.04539 -53.36023 35017 ft 572 kts 93°
2026-04-25 15:25 29.04526 -53.26942 35014 ft 572 kts 93°
2026-04-25 15:26 29.04507 -53.17905 35015 ft 572 kts 93°
2026-04-25 15:26 29.04482 -53.08806 35013 ft 572 kts 93°
2026-04-25 15:27 29.04451 -52.99719 35016 ft 572 kts 93°
2026-04-25 15:28 29.04393 -52.86063 35017 ft 573 kts 93°
2026-04-25 15:28 29.04347 -52.77022 35015 ft 573 kts 93°
2026-04-25 15:29 29.04294 -52.67919 35013 ft 573 kts 93°
2026-04-25 15:29 29.04236 -52.58878 35013 ft 573 kts 93°
2026-04-25 15:30 29.04171 -52.49776 35016 ft 573 kts 93°
2026-04-25 15:30 29.04100 -52.40677 35017 ft 573 kts 93°
2026-04-25 15:31 29.04023 -52.31567 35017 ft 573 kts 93°
2026-04-25 15:31 29.03954 -52.24004 35016 ft 573 kts 93°
2026-04-25 15:32 29.03866 -52.14893 35015 ft 574 kts 93°
2026-04-25 15:32 29.03756 -52.04294 35019 ft 574 kts 93°
2026-04-25 15:33 29.03602 -51.90686 35016 ft 574 kts 93°
2026-04-25 15:33 29.03510 -51.83108 35016 ft 574 kts 94°
2026-04-25 15:34 29.03401 -51.74493 35020 ft 574 kts 94°
2026-04-25 15:34 29.03300 -51.66920 35018 ft 574 kts 94°
2026-04-25 15:35 29.03086 -51.51769 35017 ft 574 kts 94°
2026-04-25 15:36 29.02878 -51.38086 35017 ft 574 kts 94°
2026-04-25 15:36 29.02732 -51.28967 35021 ft 574 kts 94°
2026-04-25 15:37 29.02579 -51.19849 35019 ft 574 kts 94°
2026-04-25 15:37 29.02421 -51.10784 35021 ft 574 kts 94°
2026-04-25 15:38 29.02256 -51.01664 35022 ft 574 kts 94°
2026-04-25 15:38 29.02085 -50.92534 35022 ft 575 kts 94°
2026-04-25 15:39 29.01908 -50.83441 35023 ft 575 kts 94°
2026-04-25 15:39 29.01726 -50.74377 35025 ft 575 kts 94°
2026-04-25 15:40 29.01568 -50.66748 35019 ft 575 kts 94°
2026-04-25 15:40 29.01341 -50.56131 35030 ft 575 kts 94°
2026-04-25 15:41 29.01140 -50.46998 35026 ft 575 kts 94°
2026-04-25 15:41 29.00931 -50.37854 35027 ft 575 kts 94°
2026-04-25 15:42 29.00717 -50.28713 35030 ft 576 kts 94°
2026-04-25 15:42 29.00504 -50.19724 35030 ft 576 kts 94°
2026-04-25 15:43 29.00283 -50.10580 35028 ft 576 kts 94°
2026-04-25 15:43 29.00056 -50.01436 35029 ft 576 kts 94°
2026-04-25 15:44 28.99990 -49.92298 35029 ft 576 kts 90°
2026-04-25 15:44 29.00187 -49.83422 35030 ft 575 kts 90°
2026-04-25 15:45 29.00377 -49.75128 35030 ft 575 kts 90°
2026-04-25 15:45 29.00525 -49.67543 35028 ft 575 kts 90°
2026-04-25 15:46 29.00704 -49.56873 35030 ft 575 kts 90°
2026-04-25 15:46 29.00844 -49.47742 35032 ft 575 kts 90°
2026-04-25 15:47 29.00978 -49.38621 35030 ft 574 kts 90°
2026-04-25 15:47 29.01105 -49.29500 35030 ft 574 kts 90°
2026-04-25 15:48 29.01225 -49.20440 35034 ft 574 kts 90°
2026-04-25 15:48 29.01340 -49.11314 35033 ft 574 kts 90°
2026-04-25 15:49 29.01448 -49.02198 35041 ft 574 kts 90°
2026-04-25 15:49 29.01548 -48.93081 35046 ft 574 kts 90°
2026-04-25 15:50 29.01642 -48.84081 35034 ft 574 kts 90°
2026-04-25 15:50 29.01732 -48.74956 35040 ft 574 kts 90°
2026-04-25 15:51 29.01800 -48.67381 35048 ft 574 kts 90°
2026-04-25 15:51 29.01889 -48.56737 35037 ft 574 kts 90°
2026-04-25 15:52 29.01959 -48.47627 35039 ft 574 kts 90°
2026-04-25 15:52 29.02022 -48.38564 35049 ft 573 kts 90°
2026-04-25 15:53 29.02079 -48.29456 35052 ft 573 kts 90°
2026-04-25 15:53 29.02130 -48.20347 35050 ft 574 kts 90°
2026-04-25 15:54 29.02175 -48.11285 35046 ft 574 kts 90°
2026-04-25 15:54 29.02214 -48.02177 35047 ft 573 kts 90°
2026-04-25 15:55 29.02247 -47.93131 35050 ft 573 kts 90°
2026-04-25 15:55 29.02270 -47.85888 35045 ft 573 kts 90°
2026-04-25 15:56 29.02288 -47.78452 35058 ft 573 kts 90°
2026-04-25 15:56 29.02303 -47.69344 35053 ft 573 kts 90°
2026-04-25 15:57 29.02314 -47.60243 35051 ft 573 kts 91°
2026-04-25 15:57 29.02318 -47.51208 35055 ft 573 kts 91°
2026-04-25 15:58 29.02316 -47.42120 35060 ft 572 kts 91°
2026-04-25 15:58 29.02309 -47.33026 35231 ft 571 kts 91°
2026-04-25 15:59 29.02303 -47.28483 35491 ft 571 kts 91°
2026-04-25 15:59 29.02295 -47.23960 35755 ft 570 kts 91°
2026-04-25 15:59 29.02285 -47.19428 35975 ft 572 kts 91°
2026-04-25 15:59 29.02274 -47.14928 36056 ft 575 kts 91°
2026-04-25 16:00 29.02257 -47.08807 36055 ft 576 kts 91°
2026-04-25 16:00 29.02216 -46.96629 36057 ft 576 kts 91°
2026-04-25 16:01 29.02178 -46.87679 36072 ft 575 kts 91°
2026-04-25 16:01 29.02134 -46.78554 36062 ft 576 kts 91°
2026-04-25 16:02 29.02083 -46.69422 36062 ft 575 kts 91°
2026-04-25 16:02 29.02026 -46.60338 36067 ft 575 kts 91°
2026-04-25 16:03 29.01963 -46.51208 36074 ft 575 kts 91°
2026-04-25 16:03 29.01894 -46.42087 36073 ft 574 kts 91°
2026-04-25 16:04 29.01818 -46.32983 36079 ft 573 kts 91°
2026-04-25 16:04 29.01736 -46.23876 36072 ft 573 kts 91°
2026-04-25 16:05 29.01647 -46.14832 36078 ft 573 kts 91°
2026-04-25 16:06 29.01503 -46.01198 36075 ft 572 kts 91°
2026-04-25 16:06 29.01399 -45.92106 36076 ft 572 kts 91°
2026-04-25 16:07 29.01289 -45.83032 36077 ft 572 kts 91°
2026-04-25 16:07 29.01181 -45.74218 36081 ft 572 kts 91°
2026-04-25 16:08 29.01053 -45.65199 36080 ft 572 kts 91°
2026-04-25 16:08 29.00923 -45.56121 36084 ft 572 kts 91°
2026-04-25 16:09 29.00789 -45.47036 36082 ft 572 kts 92°
2026-04-25 16:09 29.00650 -45.37966 36085 ft 572 kts 92°
2026-04-25 16:10 29.00505 -45.28879 36086 ft 572 kts 92°
2026-04-25 16:10 29.00354 -45.19800 36088 ft 572 kts 92°
2026-04-25 16:11 29.00201 -45.10779 36086 ft 572 kts 92°
2026-04-25 16:11 28.99834 -45.01711 36087 ft 572 kts 99°
2026-04-25 16:12 28.97830 -44.92992 36086 ft 566 kts 116°
2026-04-25 16:12 28.94972 -44.84616 36092 ft 566 kts 115°
2026-04-25 16:13 28.92199 -44.76202 36090 ft 567 kts 114°
2026-04-25 16:13 28.89488 -44.67747 36092 ft 567 kts 114°
2026-04-25 16:14 28.86784 -44.59287 36092 ft 568 kts 114°
2026-04-25 16:14 28.84090 -44.50892 36091 ft 568 kts 114°
2026-04-25 16:15 28.81363 -44.42432 36095 ft 568 kts 114°
2026-04-25 16:15 28.78625 -44.33966 36094 ft 569 kts 114°
2026-04-25 16:16 28.75887 -44.25527 36093 ft 569 kts 114°
2026-04-25 16:16 28.73134 -44.17066 36095 ft 569 kts 114°
2026-04-25 16:17 28.70392 -44.08666 36098 ft 570 kts 114°
2026-04-25 16:17 28.67625 -44.00216 36098 ft 570 kts 114°
2026-04-25 16:18 28.64857 -43.91791 36102 ft 570 kts 114°
2026-04-25 16:18 28.62081 -43.83366 36104 ft 571 kts 114°
2026-04-25 16:19 28.59305 -43.74962 36103 ft 571 kts 114°
2026-04-25 16:19 28.56545 -43.66630 36099 ft 571 kts 114°
2026-04-25 16:20 28.52306 -43.53866 36107 ft 571 kts 114°
2026-04-25 16:21 28.48078 -43.41186 36104 ft 572 kts 114°
2026-04-25 16:21 28.45272 -43.32796 36106 ft 572 kts 114°
2026-04-25 16:22 28.43664 -43.28000 36107 ft 572 kts 114°
2026-04-25 16:22 28.41389 -43.21219 36104 ft 572 kts 114°
2026-04-25 16:23 28.38551 -43.12782 36106 ft 572 kts 114°
2026-04-25 16:23 28.35703 -43.04335 36109 ft 573 kts 115°
2026-04-25 16:24 28.32871 -42.95999 36110 ft 567 kts 113°
2026-04-25 16:24 28.30031 -42.87645 36108 ft 568 kts 113°
2026-04-25 16:25 28.27187 -42.79274 36110 ft 569 kts 113°
2026-04-25 16:25 28.24342 -42.70910 36109 ft 568 kts 113°
2026-04-25 16:26 28.21488 -42.62541 36108 ft 569 kts 113°
2026-04-25 16:26 28.18632 -42.54185 36112 ft 569 kts 113°
2026-04-25 16:27 28.15768 -42.45829 36111 ft 569 kts 113°
2026-04-25 16:27 28.12918 -42.37530 36115 ft 569 kts 113°
2026-04-25 16:28 28.10042 -42.29178 36116 ft 569 kts 113°
2026-04-25 16:28 28.07160 -42.20827 36113 ft 569 kts 113°
2026-04-25 16:29 28.04273 -42.12482 36117 ft 569 kts 113°
2026-04-25 16:29 28.01384 -42.04142 36115 ft 569 kts 113°
2026-04-25 16:30 27.98839 -41.97571 36113 ft 566 kts 121°
2026-04-25 16:30 27.94391 -41.88473 36115 ft 566 kts 122°
2026-04-25 16:31 27.90549 -41.80704 36120 ft 566 kts 122°
2026-04-25 16:31 27.86720 -41.72929 36114 ft 566 kts 122°
2026-04-25 16:32 27.82889 -41.65144 36111 ft 567 kts 122°
2026-04-25 16:32 27.79057 -41.57369 36115 ft 567 kts 122°
2026-04-25 16:33 27.75218 -41.49593 36119 ft 567 kts 122°
2026-04-25 16:33 27.71374 -41.41822 36117 ft 567 kts 122°
2026-04-25 16:34 27.67550 -41.34105 36119 ft 567 kts 122°
2026-04-25 16:34 27.63693 -41.26334 36118 ft 568 kts 122°
2026-04-25 16:35 27.59832 -41.18570 36118 ft 568 kts 122°
2026-04-25 16:35 27.56618 -41.12116 36119 ft 568 kts 122°
2026-04-25 16:36 27.53364 -41.05593 36119 ft 568 kts 122°
2026-04-25 16:36 27.49599 -40.98059 36118 ft 568 kts 122°
2026-04-25 16:37 27.45742 -40.90355 36116 ft 569 kts 122°
2026-04-25 16:37 27.41853 -40.82601 36119 ft 569 kts 122°
2026-04-25 16:38 27.37960 -40.74851 36118 ft 569 kts 122°
2026-04-25 16:38 27.34058 -40.67100 36113 ft 569 kts 122°
2026-04-25 16:39 27.30225 -40.59498 36120 ft 569 kts 122°
2026-04-25 16:39 27.26339 -40.51806 36117 ft 569 kts 122°
2026-04-25 16:40 27.23061 -40.45328 36120 ft 569 kts 122°
2026-04-25 16:40 27.18508 -40.36345 36119 ft 570 kts 122°
2026-04-25 16:41 27.14580 -40.28609 36120 ft 570 kts 122°
2026-04-25 16:41 27.08682 -40.17022 36123 ft 570 kts 122°
2026-04-25 16:42 27.04738 -40.09291 36133 ft 570 kts 122°
2026-04-25 16:42 27.00794 -40.01571 36110 ft 571 kts 122°
2026-04-25 16:43 26.96971 -39.93840 36108 ft 572 kts 120°
2026-04-25 16:43 26.93303 -39.85929 35945 ft 569 kts 119°
2026-04-25 16:44 26.91485 -39.81997 35642 ft 568 kts 120°
2026-04-25 16:44 26.89662 -39.78074 35329 ft 568 kts 120°
2026-04-25 16:44 26.87831 -39.74156 35022 ft 567 kts 120°
2026-04-25 16:44 26.85998 -39.70246 34724 ft 566 kts 120°
2026-04-25 16:45 26.84168 -39.66351 34419 ft 565 kts 120°
2026-04-25 16:45 26.82363 -39.62516 34116 ft 564 kts 120°
2026-04-25 16:45 26.80532 -39.58634 33784 ft 564 kts 120°
2026-04-25 16:45 26.78699 -39.54755 33443 ft 565 kts 119°
2026-04-25 16:46 26.76859 -39.50868 33107 ft 564 kts 119°
2026-04-25 16:46 26.75030 -39.47006 32780 ft 561 kts 119°
2026-04-25 16:46 26.73209 -39.43162 32450 ft 558 kts 119°
2026-04-25 16:46 26.72595 -39.41868 32335 ft 557 kts 119°
2026-04-25 16:47 26.69586 -39.35529 31810 ft 552 kts 118°
2026-04-25 16:47 26.67789 -39.31746 31505 ft 550 kts 118°
2026-04-25 16:47 26.66021 -39.28029 31186 ft 547 kts 118°
2026-04-25 16:47 26.64239 -39.24283 30874 ft 545 kts 118°
2026-04-25 16:48 26.62498 -39.20628 30569 ft 542 kts 118°
2026-04-25 16:48 26.60730 -39.16919 30278 ft 540 kts 117°
2026-04-25 16:48 26.58967 -39.13223 29936 ft 537 kts 117°
2026-04-25 16:48 26.57219 -39.09555 29587 ft 532 kts 117°
2026-04-25 16:49 26.55487 -39.05923 29254 ft 528 kts 117°
2026-04-25 16:49 26.53762 -39.02313 29148 ft 526 kts 117°
2026-04-25 16:49 26.50309 -38.95092 29110 ft 527 kts 117°
2026-04-25 16:50 26.46853 -38.87877 29113 ft 527 kts 117°
2026-04-25 16:50 26.43388 -38.80657 29110 ft 528 kts 117°
2026-04-25 16:51 26.39942 -38.73487 29109 ft 528 kts 117°
2026-04-25 16:51 26.37617 -38.68655 29109 ft 528 kts 117°
2026-04-25 16:52 26.32988 -38.59054 29105 ft 528 kts 117°
2026-04-25 16:52 26.29508 -38.51848 29097 ft 528 kts 117°
2026-04-25 16:53 26.24362 -38.41215 29125 ft 529 kts 117°
2026-04-25 16:54 26.20892 -38.34060 29099 ft 529 kts 117°
2026-04-25 16:54 26.17394 -38.26858 29118 ft 529 kts 117°
2026-04-25 16:55 26.14043 -38.19971 29123 ft 529 kts 117°
2026-04-25 16:55 26.10534 -38.12775 29099 ft 530 kts 117°
2026-04-25 16:56 26.07022 -38.05575 29121 ft 529 kts 117°
2026-04-25 16:56 26.03507 -37.98383 29118 ft 530 kts 117°
2026-04-25 16:57 26.00009 -37.91237 29099 ft 530 kts 117°
2026-04-25 16:57 25.96484 -37.84049 29120 ft 530 kts 117°
2026-04-25 16:58 25.92954 -37.76863 29098 ft 530 kts 117°
2026-04-25 16:58 25.89417 -37.69674 29119 ft 530 kts 117°
2026-04-25 16:59 25.85884 -37.62502 29115 ft 530 kts 117°
2026-04-25 16:59 25.82364 -37.55369 29095 ft 530 kts 117°
2026-04-25 17:00 25.78820 -37.48199 29115 ft 530 kts 117°
2026-04-25 17:00 25.75990 -37.42483 29111 ft 531 kts 117°
2026-04-25 17:01 25.72434 -37.35310 29113 ft 531 kts 117°
2026-04-25 17:01 25.68872 -37.28134 29097 ft 531 kts 117°
2026-04-25 17:02 25.65332 -37.21016 29115 ft 531 kts 117°
2026-04-25 17:02 25.61761 -37.13846 29110 ft 532 kts 117°
2026-04-25 17:03 25.58183 -37.06673 29114 ft 532 kts 117°
2026-04-25 17:03 25.54607 -36.99514 29115 ft 531 kts 117°
2026-04-25 17:04 25.51046 -36.92397 29108 ft 532 kts 117°
2026-04-25 17:04 25.47462 -36.85244 29109 ft 532 kts 117°
2026-04-25 17:05 25.43869 -36.78088 29112 ft 532 kts 117°
2026-04-25 17:05 25.38475 -36.67362 29115 ft 532 kts 118°
2026-04-25 17:06 25.34875 -36.60217 29115 ft 532 kts 118°
2026-04-25 17:06 25.33621 -36.57730 29117 ft 532 kts 118°
2026-04-25 17:07 25.30042 -36.50643 29113 ft 532 kts 118°
2026-04-25 17:07 25.28238 -36.47074 29116 ft 532 kts 118°
2026-04-25 17:08 25.25011 -36.40698 29116 ft 532 kts 118°
2026-04-25 17:08 25.21404 -36.33581 29113 ft 532 kts 118°
2026-04-25 17:09 25.17787 -36.26449 29117 ft 532 kts 118°
2026-04-25 17:09 25.14164 -36.19326 29116 ft 532 kts 118°
2026-04-25 17:10 25.10537 -36.12206 29114 ft 532 kts 118°
2026-04-25 17:10 25.06932 -36.05136 29117 ft 533 kts 118°
2026-04-25 17:11 25.03887 -35.99167 29117 ft 533 kts 118°
2026-04-25 17:11 25.00280 -35.92100 29120 ft 533 kts 118°
2026-04-25 17:12 24.96642 -35.84980 29114 ft 533 kts 118°
2026-04-25 17:12 24.92408 -35.76711 29116 ft 533 kts 118°
2026-04-25 17:13 24.89966 -35.71950 29122 ft 533 kts 118°
2026-04-25 17:13 24.85721 -35.63686 29117 ft 534 kts 118°
2026-04-25 17:14 24.82063 -35.56578 29119 ft 533 kts 118°
2026-04-25 17:14 24.78401 -35.49474 29116 ft 534 kts 118°
2026-04-25 17:15 24.74739 -35.42382 29110 ft 534 kts 118°
2026-04-25 17:15 24.71066 -35.35280 29112 ft 534 kts 118°
2026-04-25 17:16 24.67389 -35.28184 29117 ft 534 kts 118°
2026-04-25 17:16 24.63746 -35.21165 29118 ft 534 kts 118°
2026-04-25 17:17 24.60088 -35.14125 29122 ft 534 kts 118°
2026-04-25 17:17 24.56397 -35.07032 29123 ft 534 kts 118°
2026-04-25 17:18 24.52703 -34.99945 29120 ft 537 kts 118°
2026-04-25 17:18 24.49187 -34.93211 29118 ft 537 kts 118°
2026-04-25 17:19 24.45460 -34.86081 29121 ft 540 kts 118°
2026-04-25 17:19 24.41739 -34.78974 29121 ft 542 kts 118°
2026-04-25 17:20 24.37972 -34.71790 29122 ft 544 kts 119°
2026-04-25 17:20 24.34184 -34.64577 29123 ft 546 kts 119°
2026-04-25 17:21 24.30390 -34.57364 29123 ft 547 kts 119°
2026-04-25 17:21 24.26581 -34.50134 29124 ft 548 kts 119°
2026-04-25 17:22 24.23410 -34.44121 29121 ft 549 kts 119°
2026-04-25 17:22 24.18962 -34.35703 29125 ft 549 kts 119°
2026-04-25 17:23 24.15127 -34.28456 29122 ft 550 kts 119°
2026-04-25 17:23 24.11289 -34.21211 29120 ft 550 kts 119°
2026-04-25 17:24 24.07454 -34.13979 29122 ft 551 kts 119°
2026-04-25 17:24 24.03633 -34.06782 29125 ft 551 kts 119°
2026-04-25 17:25 23.99764 -33.99551 29123 ft 551 kts 121°
2026-04-25 17:25 23.95683 -33.92463 29121 ft 551 kts 122°
2026-04-25 17:26 23.91632 -33.85360 29120 ft 551 kts 122°
2026-04-25 17:26 23.87569 -33.78261 29123 ft 551 kts 122°
2026-04-25 17:27 23.83498 -33.71177 29128 ft 551 kts 122°
2026-04-25 17:27 23.80106 -33.65291 29127 ft 551 kts 122°
2026-04-25 17:28 23.75363 -33.57070 29126 ft 551 kts 122°
2026-04-25 17:28 23.71276 -33.49997 29125 ft 551 kts 122°
2026-04-25 17:29 23.67218 -33.42984 29125 ft 551 kts 122°
2026-04-25 17:29 23.63094 -33.35865 29127 ft 551 kts 122°
2026-04-25 17:30 23.58997 -33.28803 29125 ft 551 kts 123°
2026-04-25 17:30 23.54898 -33.21747 29126 ft 551 kts 123°
2026-04-25 17:31 23.50824 -33.14742 29123 ft 551 kts 123°
2026-04-25 17:31 23.46722 -33.07699 29127 ft 551 kts 123°
2026-04-25 17:32 23.45260 -33.05192 29125 ft 551 kts 123°
2026-04-25 17:32 23.41150 -32.98149 29124 ft 551 kts 123°
2026-04-25 17:33 23.37040 -32.91115 29123 ft 551 kts 123°
2026-04-25 17:33 23.32928 -32.84086 29115 ft 551 kts 123°
2026-04-25 17:34 23.28833 -32.77097 29126 ft 551 kts 123°
2026-04-25 17:34 23.24713 -32.70075 29121 ft 551 kts 123°
2026-04-25 17:35 23.20586 -32.63050 29120 ft 551 kts 123°
2026-04-25 17:35 23.16459 -32.56035 29120 ft 551 kts 123°
2026-04-25 17:36 23.12329 -32.49024 29114 ft 551 kts 123°
2026-04-25 17:36 23.08194 -32.42015 29115 ft 551 kts 123°
2026-04-25 17:37 23.04085 -32.35057 29118 ft 551 kts 124°
2026-04-25 17:37 22.99944 -32.28056 29113 ft 551 kts 124°
2026-04-25 17:38 22.96501 -32.22241 29116 ft 551 kts 124°
2026-04-25 17:38 22.91657 -32.14072 29110 ft 551 kts 124°
2026-04-25 17:39 22.87510 -32.07088 29122 ft 551 kts 124°
2026-04-25 17:39 22.83360 -32.00107 29119 ft 551 kts 124°
2026-04-25 17:40 22.79235 -31.93178 29115 ft 551 kts 124°
2026-04-25 17:40 22.75081 -31.86210 29111 ft 550 kts 124°
2026-04-25 17:41 22.70926 -31.79246 29109 ft 550 kts 124°
2026-04-25 17:41 22.66772 -31.72296 29110 ft 550 kts 124°
2026-04-25 17:42 22.62617 -31.65353 29110 ft 550 kts 124°
2026-04-25 17:42 22.58464 -31.58424 29107 ft 549 kts 124°
2026-04-25 17:43 22.54307 -31.51495 29108 ft 549 kts 124°
2026-04-25 17:43 22.50177 -31.44621 29109 ft 549 kts 125°
2026-04-25 17:44 22.46014 -31.37700 29106 ft 548 kts 125°
2026-04-25 17:44 22.41854 -31.30794 29104 ft 548 kts 125°
2026-04-25 17:45 22.38396 -31.25060 29103 ft 548 kts 125°
2026-04-25 17:45 22.33528 -31.17001 29102 ft 548 kts 125°
2026-04-25 17:46 22.29363 -31.10113 29106 ft 547 kts 125°
2026-04-25 17:46 22.25226 -31.03280 29102 ft 547 kts 125°
2026-04-25 17:47 22.21130 -30.96525 29102 ft 547 kts 125°
2026-04-25 17:47 22.16961 -30.89657 29097 ft 547 kts 126°
2026-04-25 17:48 22.10706 -30.79369 29101 ft 546 kts 126°
2026-04-25 17:49 22.06535 -30.72521 29099 ft 546 kts 126°
2026-04-25 17:49 22.02401 -30.65743 29099 ft 546 kts 126°
2026-04-25 17:50 21.98228 -30.58908 29095 ft 546 kts 126°
2026-04-25 17:50 21.94053 -30.52080 29093 ft 545 kts 126°
2026-04-25 17:51 21.89882 -30.45264 29094 ft 545 kts 126°
2026-04-25 17:51 21.85706 -30.38452 29091 ft 545 kts 126°
2026-04-25 17:52 21.81559 -30.31695 29097 ft 545 kts 126°
2026-04-25 17:52 21.77384 -30.24900 29089 ft 544 kts 126°
2026-04-25 17:53 21.73206 -30.18110 29089 ft 544 kts 126°
2026-04-25 17:53 21.69032 -30.11333 29089 ft 543 kts 126°
2026-04-25 17:54 21.64855 -30.04560 29087 ft 543 kts 126°
2026-04-25 17:54 21.60708 -29.97844 29089 ft 543 kts 126°
2026-04-25 17:55 21.56531 -29.91085 29085 ft 542 kts 126°
2026-04-25 17:55 21.55101 -29.88773 29087 ft 542 kts 126°
2026-04-25 17:56 21.51680 -29.83243 29085 ft 542 kts 126°
2026-04-25 17:56 21.48215 -29.77787 29087 ft 540 kts 129°
2026-04-25 17:57 21.46221 -29.74803 29080 ft 540 kts 129°
2026-04-25 17:57 21.42464 -29.69158 29079 ft 540 kts 129°
2026-04-25 17:58 21.38119 -29.62586 29080 ft 540 kts 128°
2026-04-25 17:58 21.33785 -29.56015 29221 ft 537 kts 128°
2026-04-25 17:58 21.31844 -29.53074 29475 ft 532 kts 128°
2026-04-25 17:59 21.29821 -29.50010 29761 ft 532 kts 129°
2026-04-25 17:59 21.27671 -29.46762 30051 ft 537 kts 129°
2026-04-25 17:59 21.25523 -29.43521 30316 ft 543 kts 129°
2026-04-25 17:59 21.23326 -29.40210 30563 ft 548 kts 129°
2026-04-25 18:00 21.21107 -29.36868 30810 ft 553 kts 129°
2026-04-25 18:00 21.18866 -29.33495 31016 ft 560 kts 129°
2026-04-25 18:00 21.16592 -29.30074 31080 ft 567 kts 129°
2026-04-25 18:01 21.11972 -29.23130 31074 ft 576 kts 129°
2026-04-25 18:01 21.07303 -29.16114 31072 ft 580 kts 129°
2026-04-25 18:02 21.02646 -29.09126 31073 ft 581 kts 129°
2026-04-25 18:02 20.97949 -29.02088 31070 ft 581 kts 129°
2026-04-25 18:03 20.93249 -28.95054 31070 ft 581 kts 129°
2026-04-25 18:03 20.88542 -28.88019 31068 ft 581 kts 129°
2026-04-25 18:04 20.84828 -28.82475 31066 ft 581 kts 129°
2026-04-25 18:04 20.81130 -28.76959 31068 ft 581 kts 129°
2026-04-25 18:05 20.76424 -28.69949 31063 ft 580 kts 129°
2026-04-25 18:05 20.71718 -28.62948 31062 ft 580 kts 129°
2026-04-25 18:06 20.67018 -28.55964 31059 ft 580 kts 129°
2026-04-25 18:06 20.62642 -28.49475 31059 ft 579 kts 129°
2026-04-25 18:07 20.57936 -28.42502 31054 ft 579 kts 129°
2026-04-25 18:07 20.53266 -28.35582 31051 ft 579 kts 129°
2026-04-25 18:08 20.48559 -28.28615 31060 ft 578 kts 129°
2026-04-25 18:08 20.43857 -28.21665 31055 ft 578 kts 129°
2026-04-25 18:09 20.39157 -28.14730 31049 ft 577 kts 129°
2026-04-25 18:09 20.34446 -28.07791 31053 ft 577 kts 129°
2026-04-25 18:10 20.29775 -28.00918 31050 ft 577 kts 129°
2026-04-25 18:10 20.25065 -27.93995 31048 ft 576 kts 129°
2026-04-25 18:11 20.20359 -27.87084 31046 ft 576 kts 129°
2026-04-25 18:11 20.15672 -27.80211 31046 ft 576 kts 129°
2026-04-25 18:12 20.10986 -27.73346 31048 ft 576 kts 129°
2026-04-25 18:12 20.08632 -27.69901 31045 ft 575 kts 129°
2026-04-25 18:13 20.06113 -27.66217 31045 ft 575 kts 129°
2026-04-25 18:13 20.01409 -27.59342 31039 ft 575 kts 129°
2026-04-25 18:14 19.94344 -27.49031 31040 ft 575 kts 129°
2026-04-25 18:14 19.89634 -27.42168 31042 ft 575 kts 129°
2026-04-25 18:15 19.85116 -27.35591 31037 ft 574 kts 129°
2026-04-25 18:15 19.80338 -27.28642 31038 ft 574 kts 129°
2026-04-25 18:16 19.75624 -27.21799 31037 ft 574 kts 129°
2026-04-25 18:17 19.68554 -27.11548 31036 ft 574 kts 129°
2026-04-25 18:17 19.63893 -27.04798 31035 ft 573 kts 129°
2026-04-25 18:18 19.59178 -26.97979 31036 ft 573 kts 129°
2026-04-25 18:18 19.54461 -26.91164 31033 ft 573 kts 129°
2026-04-25 18:19 19.49756 -26.84373 31032 ft 572 kts 129°
2026-04-25 18:19 19.45043 -26.77580 31032 ft 572 kts 129°
2026-04-25 18:20 19.40358 -26.70834 31031 ft 572 kts 129°
2026-04-25 18:20 19.35647 -26.64056 31029 ft 571 kts 129°
2026-04-25 18:21 19.30953 -26.57312 31029 ft 571 kts 129°
2026-04-25 18:21 19.26238 -26.50546 31029 ft 571 kts 129°
2026-04-25 18:22 19.21526 -26.43791 31027 ft 570 kts 129°
2026-04-25 18:22 19.16849 -26.37093 31022 ft 570 kts 129°
2026-04-25 18:23 19.12142 -26.30360 31026 ft 569 kts 129°
2026-04-25 18:23 19.07433 -26.23631 31025 ft 569 kts 129°
2026-04-25 18:24 19.02730 -26.16918 31021 ft 568 kts 129°
2026-04-25 18:24 18.98029 -26.10211 31022 ft 568 kts 129°
2026-04-25 18:25 18.93335 -26.03511 31023 ft 567 kts 129°
2026-04-25 18:25 18.88672 -25.96790 31019 ft 567 kts 128°
2026-04-25 18:26 18.84079 -25.90151 31018 ft 566 kts 128°
2026-04-25 18:26 18.79430 -25.83444 31016 ft 566 kts 128°
2026-04-25 18:27 18.74782 -25.76752 31016 ft 565 kts 128°
2026-04-25 18:27 18.70139 -25.70077 31015 ft 564 kts 128°
2026-04-25 18:28 18.65602 -25.63559 31013 ft 564 kts 128°
2026-04-25 18:28 18.61001 -25.56957 31013 ft 563 kts 128°
2026-04-25 18:29 18.54045 -25.46989 31014 ft 563 kts 128°
2026-04-25 18:30 18.44772 -25.33722 31012 ft 562 kts 128°
2026-04-25 18:30 18.40138 -25.27103 31009 ft 561 kts 128°
2026-04-25 18:31 18.35502 -25.20489 31008 ft 561 kts 128°
2026-04-25 18:31 18.30916 -25.13952 31004 ft 560 kts 128°
2026-04-25 18:32 18.26284 -25.07357 31005 ft 560 kts 128°
2026-04-25 18:32 18.21655 -25.00772 31005 ft 560 kts 128°
2026-04-25 18:33 18.17153 -24.94375 31015 ft 559 kts 128°
2026-04-25 18:33 18.12527 -24.87808 31014 ft 559 kts 128°
2026-04-25 18:34 18.07895 -24.81238 30994 ft 559 kts 128°
2026-04-25 18:34 18.03308 -24.74739 31013 ft 558 kts 128°
2026-04-25 18:35 17.98678 -24.68187 30985 ft 558 kts 128°
2026-04-25 18:35 17.94049 -24.61642 31006 ft 558 kts 128°
2026-04-25 18:36 17.89423 -24.55109 30998 ft 558 kts 128°
2026-04-25 18:36 17.84803 -24.48588 31001 ft 556 kts 128°
2026-04-25 18:37 17.80211 -24.42114 31003 ft 557 kts 128°
2026-04-25 18:37 17.75588 -24.35602 30996 ft 557 kts 128°
2026-04-25 18:38 17.71007 -24.29154 30982 ft 545 kts 128°
2026-04-25 18:38 17.68766 -24.26020 30991 ft 528 kts 129°
2026-04-25 18:38 17.67317 -24.24004 30990 ft 519 kts 129°
2026-04-25 18:39 17.63150 -24.18225 30993 ft 522 kts 129°
2026-04-25 18:39 17.58777 -24.12164 30985 ft 521 kts 129°
2026-04-25 18:40 17.54406 -24.06104 30984 ft 521 kts 129°
2026-04-25 18:40 17.50743 -24.01026 30987 ft 521 kts 129°
2026-04-25 18:41 17.47114 -23.96000 30983 ft 521 kts 129°
2026-04-25 18:41 17.42031 -23.88969 30987 ft 520 kts 129°
2026-04-25 18:42 17.39110 -23.84930 30983 ft 520 kts 129°
2026-04-25 18:42 17.33299 -23.76905 30978 ft 520 kts 129°
2026-04-25 18:43 17.29783 -23.72053 30973 ft 520 kts 129°
2026-04-25 18:43 17.25432 -23.66053 30980 ft 519 kts 129°
2026-04-25 18:44 17.21059 -23.60029 30978 ft 520 kts 129°
2026-04-25 18:44 17.16688 -23.54013 30974 ft 519 kts 129°
2026-04-25 18:45 17.12347 -23.48044 30972 ft 519 kts 129°
2026-04-25 18:45 17.08017 -23.42095 30978 ft 519 kts 129°
2026-04-25 18:46 17.03648 -23.36098 30973 ft 518 kts 129°
2026-04-25 18:46 16.99278 -23.30104 30971 ft 518 kts 129°
2026-04-25 18:47 16.94908 -23.24115 30972 ft 518 kts 129°
2026-04-25 18:47 16.90537 -23.18131 30954 ft 518 kts 129°
2026-04-25 18:48 16.86168 -23.12154 30956 ft 518 kts 129°
2026-04-25 18:48 16.81802 -23.06187 30946 ft 518 kts 129°
2026-04-25 18:49 16.77459 -23.00256 30949 ft 518 kts 129°
2026-04-25 18:49 16.73446 -22.94066 30947 ft 518 kts 118°
2026-04-25 18:50 16.70762 -22.87098 30945 ft 519 kts 108°
2026-04-25 18:50 16.68406 -22.79998 30945 ft 518 kts 109°
2026-04-25 18:51 16.66416 -22.74159 30947 ft 518 kts 109°
2026-04-25 18:51 16.63542 -22.65903 30949 ft 518 kts 109°
2026-04-25 18:52 16.61071 -22.58852 30950 ft 518 kts 109°
2026-04-25 18:52 16.58614 -22.51847 30951 ft 518 kts 109°
2026-04-25 18:53 16.56143 -22.44800 30951 ft 517 kts 109°
2026-04-25 18:53 16.53687 -22.37796 30950 ft 517 kts 109°
2026-04-25 18:54 16.49977 -22.27235 30950 ft 517 kts 109°
2026-04-25 18:55 16.47521 -22.20250 30952 ft 517 kts 109°
2026-04-25 18:55 16.45044 -22.13219 30953 ft 517 kts 109°
2026-04-25 18:56 16.42583 -22.06240 30954 ft 517 kts 109°
2026-04-25 18:56 16.40102 -21.99210 30950 ft 517 kts 109°
2026-04-25 18:57 16.37623 -21.92195 30952 ft 516 kts 110°
2026-04-25 18:57 16.35140 -21.85177 30953 ft 516 kts 109°
2026-04-25 18:58 16.32655 -21.78162 30949 ft 517 kts 109°
2026-04-25 18:58 16.28958 -21.67755 30949 ft 516 kts 110°
2026-04-25 18:59 16.23949 -21.53756 30946 ft 516 kts 110°
2026-04-25 19:00 16.21413 -21.46699 30943 ft 516 kts 110°
2026-04-25 19:01 16.19698 -21.41931 30947 ft 516 kts 110°
2026-04-25 19:01 16.17190 -21.34965 30944 ft 516 kts 110°
2026-04-25 19:02 16.13411 -21.24487 30943 ft 516 kts 110°
2026-04-25 19:03 16.10055 -21.15194 30943 ft 516 kts 110°
2026-04-25 19:03 16.07105 -21.07036 30940 ft 515 kts 110°
2026-04-25 19:04 16.03335 -20.96627 30938 ft 515 kts 110°
2026-04-25 19:05 15.98285 -20.82715 30933 ft 514 kts 110°
2026-04-25 19:06 15.95757 -20.75761 30934 ft 514 kts 110°
2026-04-25 19:06 15.91979 -20.65383 30932 ft 514 kts 110°
2026-04-25 19:07 15.88184 -20.54974 30931 ft 514 kts 110°
2026-04-25 19:08 15.84382 -20.44566 30931 ft 513 kts 110°
2026-04-25 19:09 15.79760 -20.31938 30927 ft 513 kts 110°
2026-04-25 19:10 15.75543 -20.20439 30924 ft 512 kts 110°
2026-04-25 19:10 15.73060 -20.13675 30924 ft 512 kts 110°
2026-04-25 19:11 15.70522 -20.06770 30924 ft 512 kts 110°
2026-04-25 19:11 15.67984 -19.99874 30922 ft 511 kts 110°
2026-04-25 19:12 15.65503 -19.92999 30921 ft 511 kts 109°
2026-04-25 19:12 15.63046 -19.86078 30920 ft 511 kts 109°
2026-04-25 19:13 15.60602 -19.79216 30920 ft 511 kts 109°
2026-04-25 19:13 15.58134 -19.72311 30916 ft 510 kts 109°
2026-04-25 19:14 15.55664 -19.65415 30917 ft 510 kts 109°
2026-04-25 19:14 15.53196 -19.58531 30917 ft 509 kts 109°
2026-04-25 19:15 15.50726 -19.51649 30917 ft 509 kts 109°
2026-04-25 19:15 15.48254 -19.44770 30913 ft 509 kts 109°
2026-04-25 19:16 15.45806 -19.37943 30914 ft 509 kts 109°
2026-04-25 19:16 15.43419 -19.31072 30908 ft 508 kts 108°
2026-04-25 19:17 15.41042 -19.24178 30911 ft 508 kts 108°
2026-04-25 19:17 15.38685 -19.17369 30907 ft 508 kts 109°
2026-04-25 19:18 15.36294 -19.10486 30907 ft 508 kts 109°
2026-04-25 19:18 15.33901 -19.03611 30907 ft 507 kts 109°
2026-04-25 19:19 15.31597 -18.96999 30902 ft 507 kts 109°
2026-04-25 19:19 15.29261 -18.90300 30909 ft 507 kts 109°
2026-04-25 19:20 15.26870 -18.83438 30901 ft 506 kts 109°
2026-04-25 19:20 15.24468 -18.76578 30899 ft 506 kts 109°
2026-04-25 19:21 15.22070 -18.69730 30901 ft 506 kts 109°
2026-04-25 19:21 15.18489 -18.59512 30896 ft 505 kts 109°
2026-04-25 19:22 15.16090 -18.52674 30896 ft 505 kts 109°
2026-04-25 19:22 15.13695 -18.45856 30615 ft 503 kts 109°
2026-04-25 19:23 15.12499 -18.42459 30124 ft 501 kts 109°
2026-04-25 19:23 15.10127 -18.35720 28546 ft 493 kts 109°
2026-04-25 19:23 15.08955 -18.32411 27766 ft 486 kts 109°
2026-04-25 19:24 15.07808 -18.29149 27026 ft 480 kts 109°
2026-04-25 19:24 15.06692 -18.25949 26276 ft 473 kts 109°
2026-04-25 19:24 15.03789 -18.20070 24872 ft 460 kts 125°
2026-04-25 19:25 15.00040 -18.14854 23380 ft 450 kts 127°
2026-04-25 19:25 14.98232 -18.12260 22530 ft 444 kts 126°
2026-04-25 19:25 14.96480 -18.09626 21671 ft 439 kts 124°
2026-04-25 19:26 14.94802 -18.07023 20851 ft 433 kts 124°
2026-04-25 19:26 14.93159 -18.04432 19985 ft 428 kts 124°
2026-04-25 19:26 14.91542 -18.01868 19113 ft 424 kts 124°
2026-04-25 19:26 14.89942 -17.99330 18265 ft 419 kts 124°
2026-04-25 19:27 14.88356 -17.96819 17301 ft 415 kts 124°
2026-04-25 19:27 14.87313 -17.95172 16686 ft 411 kts 125°
2026-04-25 19:27 14.85237 -17.91902 15458 ft 403 kts 125°
2026-04-25 19:27 14.83730 -17.89531 14597 ft 396 kts 125°
2026-04-25 19:28 14.82229 -17.87172 13739 ft 390 kts 125°
2026-04-25 19:28 14.80749 -17.84847 12788 ft 384 kts 125°
2026-04-25 19:28 14.79293 -17.82565 11848 ft 378 kts 125°
2026-04-25 19:28 14.77869 -17.80331 11255 ft 364 kts 125°
2026-04-25 19:29 14.76519 -17.78212 11001 ft 343 kts 125°
2026-04-25 19:29 14.75232 -17.76186 10881 ft 332 kts 125°
2026-04-25 19:29 14.73988 -17.74229 10855 ft 319 kts 125°
2026-04-25 19:29 14.72794 -17.72350 10837 ft 306 kts 125°
2026-04-25 19:30 14.71653 -17.70551 10847 ft 293 kts 125°
2026-04-25 19:30 14.70554 -17.68820 10768 ft 285 kts 126°
2026-04-25 19:30 14.69467 -17.67115 10520 ft 291 kts 126°
2026-04-25 19:30 14.68342 -17.65357 10267 ft 294 kts 126°
2026-04-25 19:31 14.67218 -17.63602 10009 ft 292 kts 126°
2026-04-25 19:31 14.66103 -17.61859 9750 ft 290 kts 125°
2026-04-25 19:31 14.64979 -17.60110 9297 ft 294 kts 125°
2026-04-25 19:31 14.63842 -17.58341 8853 ft 296 kts 125°
2026-04-25 19:32 14.62704 -17.56570 8399 ft 295 kts 124°
2026-04-25 19:32 14.61566 -17.54801 7979 ft 296 kts 124°
2026-04-25 19:32 14.60434 -17.53039 7557 ft 295 kts 123°
2026-04-25 19:32 14.60048 -17.52439 7404 ft 294 kts 123°
2026-04-25 19:33 14.58198 -17.49560 7049 ft 283 kts 123°
2026-04-25 19:33 14.57133 -17.47898 7009 ft 272 kts 123°
2026-04-25 19:33 14.56113 -17.46299 7007 ft 263 kts 123°
2026-04-25 19:33 14.55102 -17.44711 7012 ft 269 kts 122°
2026-04-25 19:34 14.54071 -17.43092 7008 ft 277 kts 123°
2026-04-25 19:34 14.52999 -17.41415 7002 ft 283 kts 123°
2026-04-25 19:34 14.51882 -17.39671 6857 ft 290 kts 123°
2026-04-25 19:34 14.50775 -17.37950 6502 ft 294 kts 122°
2026-04-25 19:35 14.49638 -17.36186 6089 ft 294 kts 122°
2026-04-25 19:35 14.48511 -17.34442 5659 ft 291 kts 122°
2026-04-25 19:35 14.47397 -17.32714 5249 ft 288 kts 121°
2026-04-25 19:35 14.46292 -17.30993 5077 ft 287 kts 121°
2026-04-25 19:36 14.45201 -17.29289 5019 ft 283 kts 121°
2026-04-25 19:36 14.44126 -17.27611 5016 ft 277 kts 120°
2026-04-25 19:36 14.43077 -17.25967 5012 ft 273 kts 121°
2026-04-25 19:36 14.42036 -17.24349 5013 ft 269 kts 122°
2026-04-25 19:37 14.40928 -17.22889 4907 ft 272 kts 129°
2026-04-25 19:37 14.39566 -17.21506 4735 ft 277 kts 137°
2026-04-25 19:37 14.38025 -17.20289 4554 ft 280 kts 144°
2026-04-25 19:37 14.36335 -17.19269 4385 ft 282 kts 152°
2026-04-25 19:38 14.34530 -17.18474 4238 ft 283 kts 160°
2026-04-25 19:38 14.32667 -17.17920 4118 ft 282 kts 167°
2026-04-25 19:38 14.31061 -17.17613 4038 ft 281 kts 172°
2026-04-25 19:38 14.29140 -17.17437 3899 ft 281 kts 178°
2026-04-25 19:39 14.27183 -17.17380 3732 ft 283 kts 178°
2026-04-25 19:39 14.25213 -17.17218 3485 ft 286 kts 172°
2026-04-25 19:39 14.23261 -17.16843 3332 ft 285 kts 165°
2026-04-25 19:39 14.21390 -17.16195 3183 ft 283 kts 156°
2026-04-25 19:40 14.19657 -17.15264 3084 ft 278 kts 144°
2026-04-25 19:40 14.18240 -17.13954 3045 ft 270 kts 127°
2026-04-25 19:40 14.17298 -17.12325 3048 ft 261 kts 108°
2026-04-25 19:40 14.16899 -17.10535 3074 ft 253 kts 90°
2026-04-25 19:41 14.17076 -17.08772 3203 ft 241 kts 70°
2026-04-25 19:41 14.17820 -17.07296 3403 ft 229 kts 47°
2026-04-25 19:41 14.19096 -17.06353 3381 ft 228 kts 19°
2026-04-25 19:41 14.19586 -17.06206 3327 ft 225 kts 10°
2026-04-25 19:42 14.22093 -17.06308 3107 ft 211 kts 354°
2026-04-25 19:42 14.23531 -17.06452 3016 ft 205 kts 355°
2026-04-25 19:42 14.24928 -17.06557 3004 ft 198 kts 357°
2026-04-25 19:42 14.26288 -17.06624 3006 ft 197 kts 358°
2026-04-25 19:43 14.27681 -17.06672 3000 ft 203 kts 359°
2026-04-25 19:43 14.29109 -17.06720 3002 ft 207 kts 359°
2026-04-25 19:43 14.30556 -17.06771 3003 ft 209 kts 359°
2026-04-25 19:43 14.32013 -17.06827 3005 ft 210 kts 359°
2026-04-25 19:44 14.33467 -17.06887 3003 ft 211 kts 359°
2026-04-25 19:44 14.34931 -17.06952 3005 ft 211 kts 358°
2026-04-25 19:44 14.36393 -17.07016 3003 ft 210 kts 358°
2026-04-25 19:44 14.37847 -17.07084 3010 ft 217 kts 359°
2026-04-25 19:45 14.39377 -17.07265 3053 ft 225 kts 350°
2026-04-25 19:45 14.40916 -17.07571 3194 ft 225 kts 351°
2026-04-25 19:45 14.42476 -17.07799 3295 ft 228 kts 354°
2026-04-25 19:45 14.44096 -17.07843 3042 ft 234 kts
2026-04-25 19:46 14.45683 -17.07719 3016 ft 225 kts
2026-04-25 19:46 14.47212 -17.07559 3021 ft 217 kts
2026-04-25 19:46 14.48706 -17.07409 3020 ft 214 kts
2026-04-25 19:46 14.50181 -17.07280 3023 ft 208 kts
2026-04-25 19:47 14.51575 -17.07180 3022 ft 195 kts
2026-04-25 19:47 14.52903 -17.07164 3014 ft 188 kts
2026-04-25 19:47 14.54196 -17.07171 2876 ft 179 kts
2026-04-25 19:47 14.55395 -17.07187 2546 ft 171 kts 360°
2026-04-25 19:48 14.56569 -17.07197 2065 ft 170 kts
2026-04-25 19:48 14.57738 -17.07204 1702 ft 165 kts
2026-04-25 19:48 14.58855 -17.07200 1431 ft 156 kts
2026-04-25 19:48 14.59908 -17.07185 1209 ft 144 kts
2026-04-25 19:49 14.60897 -17.07169 1151 ft 145 kts
2026-04-25 19:49 14.61239 -17.07163 1127 ft 147 kts 360°
2026-04-25 19:49 14.62950 -17.07228 846 ft 145 kts 358°
2026-04-25 19:49 14.63936 -17.07235 557 ft 135 kts 360°
2026-04-25 19:50 14.65602 -17.07264 357 ft 119 kts 359°
2026-04-25 19:50 14.66487 -17.07268 282 ft 131 kts 356°
2026-04-25 19:50 14.67116 -17.07282 279 ft 46 kts 359°
2026-04-25 19:51 14.67203 -17.07283 278 ft 6 kts 359°
2026-04-25 19:51 14.67300 -17.07283 276 ft 4 kts 360°
2026-04-25 19:51 14.67374 -17.07284 275 ft 19 kts 360°
2026-04-25 19:51 14.67543 -17.07279 274 ft 27 kts 12°
2026-04-25 19:52 14.67665 -17.07258 273 ft 28 kts 13°
2026-04-25 19:52 14.67756 -17.07206 273 ft 0 kts 24°
2026-04-25 19:53 14.67757 -17.07206 273 ft 1 kts 24°
2026-04-25 19:53 14.67790 -17.07191 272 ft 10 kts 23°
2026-04-25 19:53 14.67802 -17.07130 273 ft 11 kts 129°
2026-04-25 19:53 14.67769 -17.07115 273 ft 0 kts 155°
2026-04-25 19:55 14.67691 -17.07094 274 ft 14 kts 167°
2026-04-25 19:55 14.67572 -17.07095 274 ft 21 kts 170°
2026-04-25 19:55 14.67481 -17.07081 275 ft 0 kts 173°
2026-04-25 19:55 14.67475 -17.07082 275 ft 4 kts 182°
2026-04-25 19:56 14.67472 -17.07083 275 ft 0 kts 183°
2026-04-25 19:57 14.67456 -17.07083 275 ft 6 kts 183°
2026-04-25 19:57 14.67380 -17.07088 276 ft 15 kts 183°
2026-04-25 19:57 14.67243 -17.07095 276 ft 24 kts 183°
2026-04-25 19:57 14.67093 -17.07062 277 ft 14 kts 118°
2026-04-25 19:58 14.67088 -17.07038 277 ft 0 kts 102°
2026-04-25 19:59 14.67084 -17.07022 277 ft 6 kts 102°
2026-04-25 19:59 14.67078 -17.07007 277 ft 0 kts 118°
2026-04-25 20:00 14.67077 -17.07005 277 ft 0 kts 118°
2026-04-25 20:00 14.67075 -17.07002 277 ft 3 kts 120°
2026-04-25 20:00 14.67043 -17.06967 278 ft 11 kts 131°
2026-04-25 20:01 14.67024 -17.06862 278 ft 0 kts 99°
2026-04-25 20:01 14.67025 -17.06853 278 ft 4 kts 92°
2026-04-25 20:01 14.67025 -17.06848 278 ft 0 kts 92°